Garrison, ND

1:28 AM CDT on March 24, 2017 (GMT -0500)
Garrison

Weather History for KN60 - January, 2013

Change the Weather History Date:

Thursday, January 17, 2013

  Actual Average Record
Temperature  
Mean Temperature 22 °F -  
Max Temperature 28 °F - 40 °F (2015)
Min Temperature 17 °F - -14 °F (2016)
Degree Days  
Heating Degree Days 42    
Cooling Degree Days 0    
Moisture  
Dew Point 19 °F    
Average Humidity 84    
Maximum Humidity 92    
Minimum Humidity 74    
Precipitation  
Precipitation 0.00 in - 0.01 in (2015)
Month to date precipitation  
Year to date precipitation  
Sea Level Pressure  
Sea Level Pressure 30.24 in    
Wind  
Wind Speed 10 mph (SSE)    
Max Wind Speed 18 mph    
Max Gust Speed -    
T = Trace of Precipitation, MM = Missing Value Source: NWS Daily Summary

Daily Weather History Graph

Daily Weather History Graph

Search for Another Location

Airport or City:

Trip Planner

Search our weather history database for the weather conditions in past years. The results will help you decide how hot, cold, wet, or windy it might be!

Date:

Astronomy

Jan. 17, 2013 Rise Set
Actual Time 8:27 AM CST 5:24 PM CST
Civil Twilight 7:53 AM CST 5:59 PM CST
Nautical Twilight 7:15 AM CST 6:37 PM CST
Astronomical Twilight 6:38 AM CST 7:14 PM CST
Moon 11:03 AM CST (1/17) No Moon Set
Length of Visible Light 10h 06m
Length of Day
8h 56m
Waxing Crescent, 38% of the Moon is Illuminated
Jan 17
Waxing Crescent
Jan 18
First Quarter
Jan 26
Full
Feb 3
Last Quarter
Feb 10
New

Hourly Weather History & Observations

Time (CST) Temp. Windchill Dew Point Humidity Pressure Visibility Wind Dir Wind Speed Gust Speed Precip Events Conditions
12:52 AM 28.9 °F 19.8 °F 24.1 °F 82% 30.22 in - WNW 10.4 mph - N/A   Unknown
1:52 AM 28.9 °F 19.8 °F 25.0 °F 85% 30.24 in - NW 10.4 mph - N/A   Unknown
2:52 AM 28.9 °F 18.2 °F 25.0 °F 85% 30.27 in - WNW 13.8 mph - N/A   Unknown
3:52 AM 28.9 °F 18.6 °F 25.0 °F 85% 30.30 in - WNW 12.7 mph - N/A   Unknown
4:52 AM 26.1 °F 12.7 °F 21.9 °F 84% 30.32 in - North 18.4 mph - N/A   Unknown
5:52 AM 24.1 °F 12.0 °F 21.0 °F 88% 30.34 in - NNW 13.8 mph - N/A   Unknown
6:52 AM 24.1 °F 11.0 °F 19.0 °F 81% 30.35 in - NNW 16.1 mph - N/A   Unknown
7:52 AM 19.0 °F 8.2 °F 15.1 °F 85% 30.38 in - NNW 9.2 mph - N/A   Unknown
8:52 AM 17.1 °F 8.7 °F 12.9 °F 84% 30.40 in - North 5.8 mph - N/A   Unknown
9:52 AM 18.0 °F - 14.0 °F 84% 30.42 in - Calm Calm - N/A   Unknown
10:52 AM 19.0 °F - 15.1 °F 85% 30.41 in - Calm Calm - N/A   Unknown
11:52 AM 19.9 °F - 12.9 °F 74% 30.40 in - Calm Calm - N/A   Unknown
12:52 PM 21.0 °F - 14.0 °F 74% 30.36 in - Calm Calm - N/A   Unknown
1:52 PM 19.9 °F 14.9 °F 15.1 °F 81% 30.32 in - ESE 3.5 mph - N/A   Unknown
2:52 PM 21.0 °F 12.4 °F 15.1 °F 78% 30.27 in - SE 6.9 mph - N/A   Unknown
3:52 PM 21.0 °F 11.4 °F 15.1 °F 78% 30.25 in - SE 8.1 mph - N/A   Unknown
4:52 PM 21.9 °F 11.0 °F 16.0 °F 78% 30.22 in - SE 10.4 mph - N/A   Unknown
5:52 PM 21.0 °F 8.1 °F 17.1 °F 85% 30.19 in - ESE 13.8 mph - N/A   Unknown
6:52 PM 21.9 °F 10.4 °F 17.1 °F 82% 30.17 in - ESE 11.5 mph - N/A   Unknown
7:52 PM 21.9 °F 10.4 °F 19.0 °F 89% 30.12 in - SSE 11.5 mph - N/A   Unknown
8:52 PM 23.0 °F 13.9 °F 21.0 °F 92% 30.07 in - South 8.1 mph - N/A   Unknown
9:52 PM 25.0 °F 14.8 °F 21.9 °F 88% 30.00 in - South 10.4 mph - N/A   Unknown
10:52 PM 26.1 °F 18.4 °F 24.1 °F 92% 29.93 in - South 6.9 mph - N/A   Unknown
11:52 PM 28.9 °F 21.1 °F 26.1 °F 89% 29.91 in - SSW 8.1 mph - N/A   Unknown